"Sample Date","Sample Time","Sensor Name","Sample Value","Units","Flow Rate","Sample Interval","Sample Volume","Laser Status","Number Channels","Micron Size 0","Counts/Channel 0","Micron Size 1","Counts/Channel 1","Micron Size 2","Counts/Channel 2","Micron Size 3","Counts/Channel 3","Micron Size 4","Counts/Channel 4","Micron Size 5","Counts/Channel 5","Micron Size 6","Counts/Channel 6","Micron Size 7","Counts/Channel 7","Micron Size 8","Counts/Channel 8","Micron Size 9","Counts/Channel 9","Micron Size 10","Counts/Channel 10","Micron Size 11","Counts/Channel 11","Micron Size 12","Counts/Channel 12","Micron Size 13","Counts/Channel 13","Micron Size 14","Counts/Channel 14","Micron Size 15","Counts/Channel 15","Micron Size 16","Counts/Channel 16","Micron Size 17","Counts/Channel 17","Micron Size 18","Counts/Channel 18","Micron Size 19","Counts/Channel 19","Micron Size 20","Counts/Channel 20","Micron Size 21","Counts/Channel 21","Micron Size 22","Counts/Channel 22","Micron Size 23","Counts/Channel 23","Micron Size 24","Counts/Channel 24","Micron Size 25","Counts/Channel 25","Micron Size 26","Counts/Channel 26","Micron Size 27","Counts/Channel 27","Micron Size 28","Counts/Channel 28","Micron Size 29","Counts/Channel 29","Micron Size 30","Counts/Channel 30","Micron Size 31","Counts/Channel 31"
"07/11/06","22:00:02","AMMA06",84588.000,"cc",28311.815,6.00,2831.182,1,6,0.100,42594.000,0.200,35503.000,0.300,5741.000,0.500,496.000,1.000,254.000,5.000,0
"07/11/06","22:00:08","AMMA06",86129.000,"cc",28314.926,6.00,2831.493,1,6,0.100,44015.000,0.200,35287.000,0.300,5953.000,0.500,586.000,1.000,288.000,5.000,0
"07/11/06","22:00:14","AMMA06",91977.000,"cc",28297.039,6.00,2829.704,1,6,0.100,48263.000,0.200,36385.000,0.300,6247.000,0.500,718.000,1.000,364.000,5.000,0
"07/11/06","22:00:20","AMMA06",83774.000,"cc",28271.059,6.00,2827.106,1,6,0.100,42577.000,0.200,34945.000,0.300,5660.000,0.500,421.000,1.000,171.000,5.000,0
"07/11/06","22:00:26","AMMA06",86911.000,"cc",28366.947,6.00,2836.695,1,6,0.100,44889.000,0.200,35036.000,0.300,6002.000,0.500,654.000,1.000,330.000,5.000,0
"07/11/06","22:00:32","AMMA06",85647.000,"cc",28355.707,6.00,2835.571,1,6,0.100,43533.000,0.200,34915.000,0.300,6158.000,0.500,723.000,1.000,317.000,5.000,1.000
"07/11/06","22:00:38","AMMA06",86403.000,"cc",28303.815,6.00,2830.382,1,6,0.100,44160.000,0.200,35000.000,0.300,6192.000,0.500,710.000,1.000,341.000,5.000,0
"07/11/06","22:00:44","AMMA06",83071.000,"cc",28232.340,6.00,2823.234,1,6,0.100,42686.000,0.200,34289.000,0.300,5501.000,0.500,414.000,1.000,181.000,5.000,0
"07/11/06","22:00:50","AMMA06",85630.000,"cc",28303.691,6.00,2830.369,1,6,0.100,44470.000,0.200,34657.000,0.300,5716.000,0.500,518.000,1.000,269.000,5.000,0
"07/11/06","22:00:56","AMMA06",85027.000,"cc",28370.863,6.00,2837.086,1,6,0.100,43725.000,0.200,34694.000,0.300,5755.000,0.500,569.000,1.000,284.000,5.000,0
"07/11/06","22:01:02","AMMA06",88392.000,"cc",28357.383,6.00,2835.739,1,6,0.100,45039.000,0.200,34888.000,0.300,6698.000,0.500,1193.000,1.000,573.000,5.000,1.000
"07/11/06","22:01:08","AMMA06",85906.000,"cc",28251.688,6.00,2825.169,1,6,0.100,44503.000,0.200,34730.000,0.300,5851.000,0.500,552.000,1.000,270.000,5.000,0
"07/11/06","22:01:14","AMMA06",86839.000,"cc",28324.584,6.00,2832.459,1,6,0.100,44758.000,0.200,34795.000,0.300,6045.000,0.500,842.000,1.000,399.000,5.000,0
"07/11/06","22:01:20","AMMA06",85302.000,"cc",28277.221,6.00,2827.722,1,6,0.100,44533.000,0.200,34222.000,0.300,5642.000,0.500,620.000,1.000,285.000,5.000,0
"07/11/06","22:01:26","AMMA06",84453.000,"cc",28329.457,6.00,2832.946,1,6,0.100,44356.000,0.200,34124.000,0.300,5278.000,0.500,484.000,1.000,211.000,5.000,0
"07/11/06","22:01:32","AMMA06",82765.000,"cc",28282.369,6.00,2828.237,1,6,0.100,43372.000,0.200,33641.000,0.300,5212.000,0.500,362.000,1.000,178.000,5.000,0
"07/11/06","22:01:38","AMMA06",84960.000,"cc",28307.016,6.00,2830.702,1,6,0.100,44249.000,0.200,34140.000,0.300,5640.000,0.500,621.000,1.000,310.000,5.000,0
"07/11/06","22:01:44","AMMA06",85552.000,"cc",28318.607,6.00,2831.861,1,6,0.100,44507.000,0.200,33970.000,0.300,5900.000,0.500,780.000,1.000,394.000,5.000,1.000
"07/11/06","22:01:50","AMMA06",86722.000,"cc",28296.084,6.00,2829.609,1,6,0.100,44663.000,0.200,34344.000,0.300,6215.000,0.500,1011.000,1.000,488.000,5.000,1.000
"07/11/06","22:01:56","AMMA06",83061.000,"cc",28412.811,6.00,2841.281,1,6,0.100,44001.000,0.200,33008.000,0.300,5371.000,0.500,480.000,1.000,201.000,5.000,0
"07/11/06","22:02:02","AMMA06",85891.000,"cc",28316.279,6.00,2831.628,1,6,0.100,45011.000,0.200,33639.000,0.300,5913.000,0.500,901.000,1.000,427.000,5.000,0
"07/11/06","22:02:08","AMMA06",84695.000,"cc",28269.117,6.00,2826.912,1,6,0.100,44499.000,0.200,33515.000,0.300,5721.000,0.500,634.000,1.000,326.000,5.000,0
"07/11/06","22:02:14","AMMA06",83842.000,"cc",28327.115,6.00,2832.712,1,6,0.100,44375.000,0.200,33167.000,0.300,5536.000,0.500,530.000,1.000,233.000,5.000,1.000
"07/11/06","22:02:20","AMMA06",84910.000,"cc",28313.953,6.00,2831.396,1,6,0.100,44533.000,0.200,33585.000,0.300,5730.000,0.500,745.000,1.000,317.000,5.000,0
"07/11/06","22:02:26","AMMA06",85422.000,"cc",28306.932,6.00,2830.693,1,6,0.100,44816.000,0.200,33650.000,0.300,5886.000,0.500,745.000,1.000,325.000,5.000,0
"07/11/06","22:02:32","AMMA06",85384.000,"cc",28311.039,6.00,2831.104,1,6,0.100,44811.000,0.200,33529.000,0.300,5851.000,0.500,815.000,1.000,378.000,5.000,0
"07/11/06","22:02:38","AMMA06",88201.000,"cc",28367.080,6.00,2836.708,1,6,0.100,46056.000,0.200,34031.000,0.300,6456.000,0.500,1164.000,1.000,494.000,5.000,0
"07/11/06","22:02:44","AMMA06",84041.000,"cc",28351.576,6.00,2835.158,1,6,0.100,44732.000,0.200,32913.000,0.300,5495.000,0.500,614.000,1.000,287.000,5.000,0
"07/11/06","22:02:50","AMMA06",83410.000,"cc",28330.918,6.00,2833.092,1,6,0.100,44457.000,0.200,32854.000,0.300,5307.000,0.500,556.000,1.000,236.000,5.000,0
"07/11/06","22:02:56","AMMA06",83032.000,"cc",28314.248,6.00,2831.425,1,6,0.100,44200.000,0.200,32900.000,0.300,5284.000,0.500,436.000,1.000,212.000,5.000,0
"07/11/06","22:03:02","AMMA06",83793.000,"cc",28250.272,6.00,2825.027,1,6,0.100,44676.000,0.200,32791.000,0.300,5408.000,0.500,639.000,1.000,279.000,5.000,0
"07/11/06","22:03:08","AMMA06",85436.000,"cc",28310.904,6.00,2831.091,1,6,0.100,45294.000,0.200,32946.000,0.300,5950.000,0.500,860.000,1.000,386.000,5.000,0
"07/11/06","22:03:14","AMMA06",85412.000,"cc",28320.397,6.00,2832.040,1,6,0.100,45145.000,0.200,33108.000,0.300,5920.000,0.500,846.000,1.000,393.000,5.000,0
"07/11/06","22:03:20","AMMA06",85729.000,"cc",28338.377,6.00,2833.838,1,6,0.100,45488.000,0.200,33176.000,0.300,5831.000,0.500,877.000,1.000,357.000,5.000,0
"07/11/06","22:03:26","AMMA06",84497.000,"cc",28310.967,6.00,2831.097,1,6,0.100,44539.000,0.200,33159.000,0.300,5741.000,0.500,733.000,1.000,325.000,5.000,0
"07/11/06","22:03:32","AMMA06",84541.000,"cc",28319.606,6.00,2831.961,1,6,0.100,44785.000,0.200,33107.000,0.300,5587.000,0.500,739.000,1.000,323.000,5.000,0
"07/11/06","22:03:38","AMMA06",85052.000,"cc",28273.295,6.00,2827.330,1,6,0.100,44901.000,0.200,33322.000,0.300,5819.000,0.500,698.000,1.000,312.000,5.000,0
"07/11/06","22:03:44","AMMA06",83425.000,"cc",28326.357,6.00,2832.636,1,6,0.100,44249.000,0.200,33047.000,0.300,5469.000,0.500,453.000,1.000,207.000,5.000,0
"07/11/06","22:03:50","AMMA06",82722.000,"cc",28327.275,6.00,2832.728,1,6,0.100,43834.000,0.200,32885.000,0.300,5301.000,0.500,471.000,1.000,231.000,5.000,0
"07/11/06","22:03:56","AMMA06",86400.000,"cc",28326.600,6.00,2832.660,1,6,0.100,44924.000,0.200,33873.000,0.300,6160.000,0.500,997.000,1.000,446.000,5.000,0
"07/11/06","22:04:02","AMMA06",90093.000,"cc",28326.065,6.00,2832.607,1,6,0.100,45690.000,0.200,34865.000,0.300,7348.000,0.500,1519.000,1.000,671.000,5.000,0
"07/11/06","22:04:08","AMMA06",88333.000,"cc",28312.379,6.00,2831.238,1,6,0.100,45138.000,0.200,34574.000,0.300,6738.000,0.500,1259.000,1.000,624.000,5.000,0
"07/11/06","22:04:14","AMMA06",85353.000,"cc",28317.963,6.00,2831.796,1,6,0.100,44111.000,0.200,34205.000,0.300,5980.000,0.500,722.000,1.000,335.000,5.000,0
"07/11/06","22:04:20","AMMA06",84342.000,"cc",28338.315,6.00,2833.832,1,6,0.100,43558.000,0.200,34157.000,0.300,5803.000,0.500,573.000,1.000,251.000,5.000,0
"07/11/06","22:04:26","AMMA06",83158.000,"cc",28337.488,6.00,2833.749,1,6,0.100,42783.000,0.200,34348.000,0.300,5407.000,0.500,405.000,1.000,215.000,5.000,0
"07/11/06","22:04:32","AMMA06",83449.000,"cc",28282.994,6.00,2828.300,1,6,0.100,42843.000,0.200,34214.000,0.300,5716.000,0.500,452.000,1.000,224.000,5.000,0
"07/11/06","22:04:38","AMMA06",85593.000,"cc",28319.363,6.00,2831.937,1,6,0.100,43244.000,0.200,35387.000,0.300,6033.000,0.500,597.000,1.000,332.000,5.000,0
"07/11/06","22:04:44","AMMA06",83500.000,"cc",28339.148,6.00,2833.915,1,6,0.100,42138.000,0.200,34800.000,0.300,5894.000,0.500,466.000,1.000,202.000,5.000,0
"07/11/06","22:04:50","AMMA06",82607.000,"cc",28330.768,6.00,2833.077,1,6,0.100,41965.000,0.200,34547.000,0.300,5561.000,0.500,381.000,1.000,153.000,5.000,0
"07/11/06","22:04:56","AMMA06",83769.000,"cc",28306.463,6.00,2830.647,1,6,0.100,41870.000,0.200,35160.000,0.300,5941.000,0.500,512.000,1.000,286.000,5.000,0
"07/11/06","22:05:02","AMMA06",85186.000,"cc",28325.479,6.00,2832.548,1,6,0.100,43139.000,0.200,34898.000,0.300,6178.000,0.500,649.000,1.000,322.000,5.000,0
"07/11/06","22:05:08","AMMA06",86947.000,"cc",28357.754,6.00,2835.776,1,6,0.100,43332.000,0.200,35354.000,0.300,6736.000,0.500,999.000,1.000,526.000,5.000,0
"07/11/06","22:05:14","AMMA06",83258.000,"cc",28309.031,6.00,2830.903,1,6,0.100,41576.000,0.200,35104.000,0.300,5810.000,0.500,510.000,1.000,258.000,5.000,0
"07/11/06","22:05:20","AMMA06",82955.000,"cc",28329.652,6.00,2832.965,1,6,0.100,41778.000,0.200,34744.000,0.300,5784.000,0.500,448.000,1.000,201.000,5.000,0
"07/11/06","22:05:26","AMMA06",82813.000,"cc",28272.647,6.00,2827.265,1,6,0.100,41525.000,0.200,34861.000,0.300,5704.000,0.500,504.000,1.000,219.000,5.000,0
"07/11/06","22:05:32","AMMA06",82890.000,"cc",28289.326,6.00,2828.933,1,6,0.100,41835.000,0.200,34856.000,0.300,5621.000,0.500,383.000,1.000,195.000,5.000,0
"07/11/06","22:05:38","AMMA06",83173.000,"cc",28321.436,6.00,2832.144,1,6,0.100,41956.000,0.200,34895.000,0.300,5734.000,0.500,387.000,1.000,201.000,5.000,0
"07/11/06","22:05:44","AMMA06",83085.000,"cc",28330.381,6.00,2833.038,1,6,0.100,41929.000,0.200,34703.000,0.300,5771.000,0.500,447.000,1.000,235.000,5.000,0
"07/11/06","22:05:50","AMMA06",85353.000,"cc",28300.633,6.00,2830.064,1,6,0.100,43237.000,0.200,34919.000,0.300,6166.000,0.500,681.000,1.000,350.000,5.000,0
"07/11/06","22:05:56","AMMA06",82562.000,"cc",28333.857,6.00,2833.386,1,6,0.100,42141.000,0.200,34379.000,0.300,5509.000,0.500,376.000,1.000,157.000,5.000,0
"07/11/06","22:06:02","AMMA06",86150.000,"cc",28284.832,6.00,2828.483,1,6,0.100,43507.000,0.200,34911.000,0.300,6377.000,0.500,918.000,1.000,437.000,5.000,0
"07/11/06","22:06:08","AMMA06",84241.000,"cc",28339.490,6.00,2833.949,1,6,0.100,43073.000,0.200,34428.000,0.300,5966.000,0.500,543.000,1.000,231.000,5.000,0
"07/11/06","22:06:14","AMMA06",82735.000,"cc",28343.904,6.00,2834.391,1,6,0.100,42507.000,0.200,33961.000,0.300,5703.000,0.500,394.000,1.000,170.000,5.000,0
"07/11/06","22:06:20","AMMA06",82638.000,"cc",28327.309,6.00,2832.731,1,6,0.100,42778.000,0.200,33725.000,0.300,5493.000,0.500,456.000,1.000,186.000,5.000,0
"07/11/06","22:06:26","AMMA06",83816.000,"cc",28346.264,6.00,2834.627,1,6,0.100,43667.000,0.200,33764.000,0.300,5603.000,0.500,552.000,1.000,230.000,5.000,0
"07/11/06","22:06:32","AMMA06",82312.000,"cc",28295.963,6.00,2829.596,1,6,0.100,42956.000,0.200,33553.000,0.300,5293.000,0.500,340.000,1.000,170.000,5.000,0
"07/11/06","22:06:38","AMMA06",83314.000,"cc",28318.998,6.00,2831.900,1,6,0.100,43751.000,0.200,33522.000,0.300,5404.000,0.500,426.000,1.000,211.000,5.000,0
"07/11/06","22:06:44","AMMA06",85459.000,"cc",28284.998,6.00,2828.500,1,6,0.100,44583.000,0.200,33798.000,0.300,5981.000,0.500,773.000,1.000,324.000,5.000,0
"07/11/06","22:06:50","AMMA06",87514.000,"cc",28323.916,6.00,2832.392,1,6,0.100,44904.000,0.200,34200.000,0.300,6681.000,0.500,1192.000,1.000,537.000,5.000,0
"07/11/06","22:06:56","AMMA06",83724.000,"cc",28291.900,6.00,2829.190,1,6,0.100,44030.000,0.200,33286.000,0.300,5551.000,0.500,589.000,1.000,268.000,5.000,0
"07/11/06","22:07:02","AMMA06",88472.000,"cc",28314.080,6.00,2831.408,1,6,0.100,45368.000,0.200,34640.000,0.300,6739.000,0.500,1196.000,1.000,529.000,5.000,0
"07/11/06","22:07:08","AMMA06",86889.000,"cc",28334.020,6.00,2833.402,1,6,0.100,45947.000,0.200,33707.000,0.300,6065.000,0.500,798.000,1.000,372.000,5.000,0
"07/11/06","22:07:14","AMMA06",83998.000,"cc",28312.152,6.00,2831.215,1,6,0.100,44400.000,0.200,33159.000,0.300,5577.000,0.500,572.000,1.000,290.000,5.000,0
"07/11/06","22:07:20","AMMA06",83234.000,"cc",28297.662,6.00,2829.766,1,6,0.100,44001.000,0.200,33291.000,0.300,5181.000,0.500,512.000,1.000,249.000,5.000,0
"07/11/06","22:07:26","AMMA06",85178.000,"cc",28308.895,6.00,2830.890,1,6,0.100,45034.000,0.200,33217.000,0.300,5791.000,0.500,813.000,1.000,323.000,5.000,0
"07/11/06","22:07:32","AMMA06",85225.000,"cc",28367.631,6.00,2836.763,1,6,0.100,45345.000,0.200,33090.000,0.300,5766.000,0.500,714.000,1.000,310.000,5.000,0
"07/11/06","22:07:38","AMMA06",83317.000,"cc",28307.158,6.00,2830.716,1,6,0.100,44515.000,0.200,32788.000,0.300,5269.000,0.500,502.000,1.000,243.000,5.000,0
"07/11/06","22:07:44","AMMA06",84223.000,"cc",28280.885,6.00,2828.089,1,6,0.100,45241.000,0.200,32739.000,0.300,5422.000,0.500,581.000,1.000,240.000,5.000,0
"07/11/06","22:07:50","AMMA06",87908.000,"cc",28304.643,6.00,2830.464,1,6,0.100,45913.000,0.200,33873.000,0.300,6487.000,0.500,1132.000,1.000,503.000,5.000,0
"07/11/06","22:07:56","AMMA06",90867.000,"cc",28392.537,6.00,2839.254,1,6,0.100,47212.000,0.200,34102.000,0.300,7133.000,0.500,1733.000,1.000,687.000,5.000,0
"07/11/06","22:08:02","AMMA06",83131.000,"cc",28276.148,6.00,2827.615,1,6,0.100,44024.000,0.200,32933.000,0.300,5428.000,0.500,524.000,1.000,222.000,5.000,0
"07/11/06","22:08:08","AMMA06",83400.000,"cc",28328.678,6.00,2832.868,1,6,0.100,44194.000,0.200,33024.000,0.300,5403.000,0.500,548.000,1.000,231.000,5.000,0
"07/11/06","22:08:14","AMMA06",89057.000,"cc",28286.582,6.00,2828.658,1,6,0.100,46014.000,0.200,34099.000,0.300,6934.000,0.500,1428.000,1.000,582.000,5.000,0
"07/11/06","22:08:20","AMMA06",88762.000,"cc",28318.102,6.00,2831.810,1,6,0.100,45958.000,0.200,34186.000,0.300,6725.000,0.500,1333.000,1.000,560.000,5.000,0
"07/11/06","22:08:26","AMMA06",83085.000,"cc",28313.082,6.00,2831.308,1,6,0.100,44198.000,0.200,32804.000,0.300,5417.000,0.500,448.000,1.000,218.000,5.000,0
"07/11/06","22:08:32","AMMA06",84111.000,"cc",28350.086,6.00,2835.009,1,6,0.100,44819.000,0.200,32772.000,0.300,5616.000,0.500,640.000,1.000,264.000,5.000,0
"07/11/06","22:08:38","AMMA06",85147.000,"cc",28318.648,6.00,2831.865,1,6,0.100,44694.000,0.200,33551.000,0.300,5849.000,0.500,711.000,1.000,342.000,5.000,0
"07/11/06","22:08:44","AMMA06",84437.000,"cc",28263.951,6.00,2826.395,1,6,0.100,44103.000,0.200,33500.000,0.300,5805.000,0.500,737.000,1.000,292.000,5.000,0
"07/11/06","22:08:50","AMMA06",84411.000,"cc",28328.201,6.00,2832.820,1,6,0.100,44236.000,0.200,33623.000,0.300,5671.000,0.500,593.000,1.000,288.000,5.000,0
"07/11/06","22:08:56","AMMA06",84905.000,"cc",28320.418,6.00,2832.042,1,6,0.100,44070.000,0.200,34076.000,0.300,5769.000,0.500,702.000,1.000,288.000,5.000,0
"07/11/06","22:09:02","AMMA06",86626.000,"cc",28334.018,6.00,2833.402,1,6,0.100,44613.000,0.200,34286.000,0.300,6336.000,0.500,969.000,1.000,422.000,5.000,0
"07/11/06","22:09:08","AMMA06",85777.000,"cc",28295.420,6.00,2829.542,1,6,0.100,44137.000,0.200,34261.000,0.300,6175.000,0.500,836.000,1.000,368.000,5.000,0
"07/11/06","22:09:14","AMMA06",86849.000,"cc",28349.627,6.00,2834.963,1,6,0.100,44276.000,0.200,34666.000,0.300,6400.000,0.500,1025.000,1.000,482.000,5.000,0
"07/11/06","22:09:20","AMMA06",85022.000,"cc",28339.672,6.00,2833.967,1,6,0.100,43781.000,0.200,34386.000,0.300,5896.000,0.500,669.000,1.000,290.000,5.000,0
"07/11/06","22:09:26","AMMA06",84930.000,"cc",28250.201,6.00,2825.020,1,6,0.100,43476.000,0.200,34318.000,0.300,6041.000,0.500,742.000,1.000,353.000,5.000,0
"07/11/06","22:09:32","AMMA06",83876.000,"cc",28307.545,6.00,2830.755,1,6,0.100,42810.000,0.200,34361.000,0.300,5876.000,0.500,574.000,1.000,255.000,5.000,0
"07/11/06","22:09:38","AMMA06",83922.000,"cc",28297.279,6.00,2829.728,1,6,0.100,42910.000,0.200,34595.000,0.300,5746.000,0.500,466.000,1.000,205.000,5.000,0
"07/11/06","22:09:44","AMMA06",82486.000,"cc",28337.936,6.00,2833.794,1,6,0.100,42449.000,0.200,34231.000,0.300,5346.000,0.500,312.000,1.000,148.000,5.000,0
"07/11/06","22:09:50","AMMA06",85040.000,"cc",28335.164,6.00,2833.517,1,6,0.100,43091.000,0.200,35012.000,0.300,5903.000,0.500,695.000,1.000,339.000,5.000,0
"07/11/06","22:09:56","AMMA06",83835.000,"cc",28325.592,6.00,2832.559,1,6,0.100,42643.000,0.200,34539.000,0.300,5882.000,0.500,524.000,1.000,247.000,5.000,0
"07/11/06","22:10:02","AMMA06",85645.000,"cc",28327.324,6.00,2832.733,1,6,0.100,43099.000,0.200,35198.000,0.300,6220.000,0.500,760.000,1.000,368.000,5.000,0
"07/11/06","22:10:08","AMMA06",83328.000,"cc",28293.766,6.00,2829.377,1,6,0.100,42516.000,0.200,34589.000,0.300,5580.000,0.500,441.000,1.000,202.000,5.000,0
"07/11/06","22:10:14","AMMA06",84058.000,"cc",28323.895,6.00,2832.390,1,6,0.100,42635.000,0.200,34674.000,0.300,5934.000,0.500,547.000,1.000,268.000,5.000,0
"07/11/06","22:10:20","AMMA06",84748.000,"cc",28348.367,6.00,2834.837,1,6,0.100,43042.000,0.200,34802.000,0.300,5969.000,0.500,636.000,1.000,299.000,5.000,0
"07/11/06","22:10:26","AMMA06",81971.000,"cc",28274.760,6.00,2827.476,1,6,0.100,42040.000,0.200,34207.000,0.300,5284.000,0.500,308.000,1.000,132.000,5.000,0
"07/11/06","22:10:32","AMMA06",83590.000,"cc",28343.717,6.00,2834.372,1,6,0.100,42573.000,0.200,34809.000,0.300,5637.000,0.500,396.000,1.000,175.000,5.000,0
"07/11/06","22:10:38","AMMA06",84304.000,"cc",28352.807,6.00,2835.281,1,6,0.100,42767.000,0.200,34769.000,0.300,5891.000,0.500,589.000,1.000,288.000,5.000,0
"07/11/06","22:10:44","AMMA06",83483.000,"cc",28234.033,6.00,2823.404,1,6,0.100,42689.000,0.200,34305.000,0.300,5740.000,0.500,505.000,1.000,244.000,5.000,0
"07/11/06","22:10:50","AMMA06",83593.000,"cc",28328.238,6.00,2832.824,1,6,0.100,42795.000,0.200,34397.000,0.300,5668.000,0.500,519.000,1.000,214.000,5.000,0
"07/11/06","22:10:56","AMMA06",84871.000,"cc",28321.729,6.00,2832.173,1,6,0.100,43968.000,0.200,34516.000,0.300,5667.000,0.500,480.000,1.000,240.000,5.000,0
"07/11/06","22:11:02","AMMA06",87549.000,"cc",28354.193,6.00,2835.419,1,6,0.100,45640.000,0.200,35202.000,0.300,5837.000,0.500,587.000,1.000,283.000,5.000,0
"07/11/06","22:11:08","AMMA06",83182.000,"cc",28306.660,6.00,2830.666,1,6,0.100,42727.000,0.200,34284.000,0.300,5595.000,0.500,400.000,1.000,176.000,5.000,0
"07/11/06","22:11:14","AMMA06",89316.000,"cc",28356.615,6.00,2835.662,1,6,0.100,44580.000,0.200,35624.000,0.300,7044.000,0.500,1384.000,1.000,684.000,5.000,0
"07/11/06","22:11:20","AMMA06",88753.000,"cc",28306.566,6.00,2830.657,1,6,0.100,44717.000,0.200,35298.000,0.300,6979.000,0.500,1149.000,1.000,610.000,5.000,0
"07/11/06","22:11:26","AMMA06",88046.000,"cc",28316.772,6.00,2831.677,1,6,0.100,44778.000,0.200,35553.000,0.300,6518.000,0.500,807.000,1.000,390.000,5.000,0
"07/11/06","22:11:32","AMMA06",84597.000,"cc",28322.152,6.00,2832.215,1,6,0.100,42715.000,0.200,35045.000,0.300,5931.000,0.500,608.000,1.000,298.000,5.000,0
"07/11/06","22:11:38","AMMA06",85535.000,"cc",28295.049,6.00,2829.505,1,6,0.100,43494.000,0.200,35295.000,0.300,5874.000,0.500,586.000,1.000,286.000,5.000,0
"07/11/06","22:11:44","AMMA06",84925.000,"cc",28311.645,6.00,2831.165,1,6,0.100,42889.000,0.200,35129.000,0.300,6020.000,0.500,599.000,1.000,288.000,5.000,0
"07/11/06","22:11:50","AMMA06",86555.000,"cc",28315.463,6.00,2831.546,1,6,0.100,43398.000,0.200,35488.000,0.300,6384.000,0.500,824.000,1.000,461.000,5.000,0
"07/11/06","22:11:56","AMMA06",87177.000,"cc",28358.447,6.00,2835.845,1,6,0.100,43951.000,0.200,35532.000,0.300,6407.000,0.500,843.000,1.000,444.000,5.000,0
"07/11/06","22:12:02","AMMA06",86553.000,"cc",28273.336,6.00,2827.334,1,6,0.100,44208.000,0.200,35489.000,0.300,5960.000,0.500,555.000,1.000,341.000,5.000,0
"07/11/06","22:12:08","AMMA06",86677.000,"cc",28291.434,6.00,2829.144,1,6,0.100,43594.000,0.200,35518.000,0.300,6391.000,0.500,796.000,1.000,378.000,5.000,0
"07/11/06","22:12:14","AMMA06",88152.000,"cc",28318.084,6.00,2831.809,1,6,0.100,44671.000,0.200,35572.000,0.300,6517.000,0.500,908.000,1.000,484.000,5.000,0
"07/11/06","22:12:20","AMMA06",88651.000,"cc",28333.885,6.00,2833.389,1,6,0.100,45972.000,0.200,35569.000,0.300,6180.000,0.500,592.000,1.000,338.000,5.000,0
"07/11/06","22:12:26","AMMA06",83868.000,"cc",28299.883,6.00,2829.989,1,6,0.100,42890.000,0.200,34697.000,0.300,5735.000,0.500,372.000,1.000,174.000,5.000,0
"07/11/06","22:12:32","AMMA06",83382.000,"cc",28293.758,6.00,2829.376,1,6,0.100,42487.000,0.200,34667.000,0.300,5711.000,0.500,334.000,1.000,183.000,5.000,0
"07/11/06","22:12:38","AMMA06",84298.000,"cc",28333.897,6.00,2833.390,1,6,0.100,42705.000,0.200,34742.000,0.300,5956.000,0.500,599.000,1.000,296.000,5.000,0
"07/11/06","22:12:44","AMMA06",84312.000,"cc",28356.693,6.00,2835.669,1,6,0.100,43213.000,0.200,34547.000,0.300,5817.000,0.500,512.000,1.000,223.000,5.000,0
"07/11/06","22:12:50","AMMA06",82782.000,"cc",28312.711,6.00,2831.271,1,6,0.100,42730.000,0.200,34155.000,0.300,5365.000,0.500,366.000,1.000,166.000,5.000,0
"07/11/06","22:12:56","AMMA06",82789.000,"cc",28342.205,6.00,2834.221,1,6,0.100,42740.000,0.200,34067.000,0.300,5415.000,0.500,395.000,1.000,172.000,5.000,0
"07/11/06","22:13:02","AMMA06",82749.000,"cc",28278.779,6.00,2827.878,1,6,0.100,42713.000,0.200,34201.000,0.300,5322.000,0.500,365.000,1.000,148.000,5.000,0
"07/11/06","22:13:08","AMMA06",83325.000,"cc",28326.412,6.00,2832.641,1,6,0.100,43018.000,0.200,34228.000,0.300,5542.000,0.500,371.000,1.000,166.000,5.000,0
"07/11/06","22:13:14","AMMA06",83699.000,"cc",28318.023,6.00,2831.803,1,6,0.100,43114.000,0.200,34289.000,0.300,5639.000,0.500,464.000,1.000,193.000,5.000,0
"07/11/06","22:13:20","AMMA06",82366.000,"cc",28285.361,6.00,2828.536,1,6,0.100,42685.000,0.200,33781.000,0.300,5347.000,0.500,379.000,1.000,174.000,5.000,0
"07/11/06","22:13:26","AMMA06",83348.000,"cc",28338.990,6.00,2833.899,1,6,0.100,43648.000,0.200,33707.000,0.300,5412.000,0.500,392.000,1.000,189.000,5.000,0
"07/11/06","22:13:32","AMMA06",84251.000,"cc",28346.229,6.00,2834.623,1,6,0.100,43644.000,0.200,33860.000,0.300,5824.000,0.500,666.000,1.000,257.000,5.000,0
"07/11/06","22:13:38","AMMA06",84906.000,"cc",28309.838,6.00,2830.984,1,6,0.100,44008.000,0.200,34041.000,0.300,5908.000,0.500,641.000,1.000,308.000,5.000,0
"07/11/06","22:13:44","AMMA06",85028.000,"cc",28253.873,6.00,2825.388,1,6,0.100,44520.000,0.200,33924.000,0.300,5687.000,0.500,618.000,1.000,279.000,5.000,0
"07/11/06","22:13:50","AMMA06",83371.000,"cc",28298.219,6.00,2829.822,1,6,0.100,44069.000,0.200,33518.000,0.300,5215.000,0.500,403.000,1.000,166.000,5.000,0
"07/11/06","22:13:56","AMMA06",83191.000,"cc",28351.873,6.00,2835.188,1,6,0.100,43850.000,0.200,33435.000,0.300,5280.000,0.500,428.000,1.000,198.000,5.000,0
"07/11/06","22:14:02","AMMA06",84632.000,"cc",28350.928,6.00,2835.093,1,6,0.100,44364.000,0.200,33677.000,0.300,5658.000,0.500,664.000,1.000,269.000,5.000,0
"07/11/06","22:14:08","AMMA06",85039.000,"cc",28316.402,6.00,2831.640,1,6,0.100,44099.000,0.200,33887.000,0.300,5952.000,0.500,754.000,1.000,347.000,5.000,0
"07/11/06","22:14:14","AMMA06",84463.000,"cc",28310.682,6.00,2831.068,1,6,0.100,44135.000,0.200,33923.000,0.300,5593.000,0.500,578.000,1.000,234.000,5.000,0